Simultaneous Nadir Overpasses (SNOs) Predictions

Prediction of SNOs between GOES-15 and NOAA-20 Satellite Orbit:

Table of predicted SNOs for the next 14.0 days since TLE Epoch: 8/22/2020
Index Date Time (GOES-15) GOES-15 Lat,Lon NOAA-20 Lat,Lon Distance(km) Time Diff (sec)
1 08/23/2020 10:04:59 -0.05,-127.79 0.53,-130.32 289.32 80
2 08/24/2020 09:48:53 -0.04,-127.75 -0.47,-125.79 223.08 80
3 08/25/2020 22:08:08 0.05,-127.65 -0.73,-131.09 392.67 80
4 08/26/2020 21:52:03 0.05,-127.60 0.27,-126.55 119.36 80
5 08/28/2020 10:11:10 -0.06,-127.58 0.87,-131.83 483.79 80
6 08/29/2020 09:55:05 -0.06,-127.53 -0.13,-127.29 27.98 80
7 08/31/2020 21:55:35 0.07,-127.38 -0.06,-128.06 76.93 80
8 09/01/2020 21:39:29 0.07,-127.33 0.94,-123.52 434.89 80
9 09/03/2020 09:58:35 -0.07,-127.31 0.26,-128.78 168.42 80
10 09/04/2020 09:42:30 -0.07,-127.26 -0.74,-124.25 343.23 80
